[[{"header":{"parameterUnit":"m.s-1","parameterCategory":2,"la1":30.2992,"la2":30.254,"lo1":-89.0895,"lo2":-89.0443,"dy":0.0025,"dx":0.0025,"nx":19,"ny":19,"refTime":"2026-03-21T09:00:00:Z","depth":"0","parameterNumber":2,"parameterNumberName":"U-component_of_CURRENTS"},"data":[0,0,0,0.4902,0.4907,0.5199,0.52,0.5347,0.5347,0,0,0,0,0,0,0,0,0,0,0,0.4771,0.4772,0.4901,0.4908,0.5198,0.52,0.5347,0.5347,0,0,0,0,0,0,0,0,0,0,0,0.4771,0.4772,0.4773,0.4909,0.5198,0.52,0.5347,0.5187,0,0,0,0,0,0,0,0,0,0,0.4934,0.4878,0.4772,0.4773,0.491,0.5198,0.52,0.5182,0.5197,0.5146,0,0.5168,0,0.5261,0.5351,0.5351,0,0,0,0.4924,0.4866,0.4907,0.4773,0.4913,0.5197,0.5072,0.5192,0.5209,0.5164,0.5171,0.5179,0.5264,0.5351,0.5351,0.5399,0.5399,0,0,0.4908,0.4864,0.4896,0.4917,0.4953,0.5063,0.5081,0.5205,0.5222,0.5172,0.5185,0.5266,0.5351,0.5352,0.5399,0.5399,0,0,0,0.4851,0.4852,0.4898,0.4907,0.4979,0.5071,0.5092,0.5218,0.5222,0.5187,0.5268,0.5352,0.5352,0.5399,0.5399,0.5551,0,0,0,0.4842,0.4818,0.4889,0.4872,0.4977,0.5145,0.5101,0.5213,0.5232,0.5267,0.5352,0.5353,0.5399,0.5399,0.5547,0.554,0,0,0,0.4764,0.4813,0.4827,0.4868,0.4987,0.5145,0.5162,0.5221,0.5279,0.5351,0.5353,0.5398,0.5399,0.5543,0.5535,0.5596,0,0,0,0.4736,0.4767,0.4825,0.4892,0.4984,0.5153,0.5163,0.5297,0.5363,0.5352,0.5399,0.5399,0.5541,0.5532,0.5593,0.5243,0.5232,0,0,0.4756,0.4769,0.4807,0.4866,0.501,0.5116,0.5289,0.5365,0.5342,0.5344,0.5348,0.5548,0.5535,0.5596,0.5266,0.5254,0,0,0,0.4802,0.4825,0.488,0.4979,0.5104,0.5255,0.5375,0.5429,0.5498,0.5382,0.5513,0.5497,0.5533,0.5313,0.5304,0.5095,0.5401,0.5401,0.5401,0.4784,0.4852,0.4914,0.5022,0.5142,0.5361,0.5482,0.5554,0.5551,0.5598,0.56,0.5706,0.5473,0.5462,0.5254,0.5611,0.5611,0.5612,0.5612,0.4755,0.479,0.4887,0.4954,0.5127,0.5279,0.5538,0.562,0.5763,0.5714,0.5745,0.5453,0.5459,0.5241,0.5621,0.562,0.5619,0.5618,0.5617,0.4689,0.4726,0.4732,0.4832,0.4995,0.5223,0.5418,0.5637,0.5792,0.5884,0.5607,0.5598,0.5422,0.5909,0.5909,0.5909,0.591,0.591,0.591,0.4631,0.4656,0.4641,0.4743,0.4826,0.5027,0.5359,0.55,0.5619,0.5669,0.5667,0.5378,0.5794,0.5801,0.5914,0.5914,0.5913,0.5913,0.5912,0.467,0.4614,0.4582,0.4606,0.476,0.4772,0.511,0.5192,0.538,0.5352,0.5139,0.5559,0.5458,0.5458,0.5452,0.547,0.547,0.547,0.547,0.467,0.4653,0.4542,0.4538,0.4626,0.4677,0.4535,0.4611,0.4725,0.4674,0.4852,0.4691,0.4718,0.4569,0.4589,0.4564,0.4357,0.4356,0.4355,0.4718,0.4644,0.455,0.4466,0.4537,0.4468,0.4058,0.378,0.3995,0.4307,0.4649,0.4696,0.4468,0.4526,0.4295,0.434,0.43,0,0]},{"header":{"parameterUnit":"m.s-1","parameterCategory":2,"la1":30.2992,"la2":30.254,"lo1":-89.0895,"lo2":-89.0443,"dy":0.0025,"dx":0.0025,"nx":19,"ny":19,"refTime":"2026-03-21T09:00:00:Z","depth":"0","parameterNumber":3,"parameterNumberName":"V-component_of_CURRENTS"},"data":[0,0,0,0.0524,0.0524,0.0538,0.0538,0.047,0.0469,0,0,0,0,0,0,0,0,0,0,0,0.051,0.051,0.0524,0.0525,0.0538,0.0538,0.047,0.0469,0,0,0,0,0,0,0,0,0,0,0,0.051,0.051,0.051,0.0525,0.0538,0.0538,0.047,0.0481,0,0,0,0,0,0,0,0,0,0,0.0478,0.0494,0.051,0.051,0.0525,0.0538,0.0538,0.0483,0.048,0.0439,0,0.0437,0,0.0453,0.0463,0.0462,0,0,0,0.0524,0.0496,0.0485,0.051,0.0525,0.0538,0.0532,0.0482,0.0479,0.0436,0.0436,0.0434,0.0452,0.0462,0.0462,0.0469,0.0469,0,0,0.0523,0.0526,0.0487,0.0483,0.052,0.0531,0.0532,0.0482,0.0481,0.0436,0.0433,0.0451,0.0461,0.0461,0.0468,0.0469,0,0,0,0.0521,0.0526,0.0518,0.0485,0.0495,0.0532,0.0533,0.0484,0.0477,0.0433,0.045,0.0461,0.046,0.0467,0.0468,0.0614,0,0,0,0.0521,0.0524,0.0517,0.0521,0.0497,0.0506,0.0537,0.0481,0.0476,0.045,0.0461,0.0459,0.0466,0.0468,0.0608,0.072,0,0,0,0.0511,0.0524,0.052,0.0521,0.0527,0.0508,0.0499,0.0481,0.0485,0.0462,0.0458,0.0465,0.0467,0.0603,0.0709,0.0857,0,0,0,0.0522,0.0541,0.052,0.0548,0.0527,0.0547,0.05,0.0508,0.0494,0.046,0.0466,0.0468,0.0601,0.0703,0.0849,0.0902,0.0942,0,0,0.0558,0.0546,0.0564,0.0545,0.0582,0.0545,0.0601,0.0557,0.051,0.0474,0.0475,0.061,0.0709,0.0855,0.1011,0.1049,0,0,0,0.0584,0.0605,0.061,0.0624,0.0612,0.0657,0.0604,0.0611,0.0624,0.0511,0.0608,0.0666,0.0754,0.0768,0.0798,0.0588,0.0477,0.0477,0.0476,0.0682,0.0667,0.0707,0.0699,0.071,0.0724,0.078,0.0779,0.0679,0.0726,0.0782,0.0994,0.1007,0.1031,0.0812,0.0751,0.0752,0.0752,0.0752,0.0785,0.0795,0.0798,0.0831,0.0838,0.0872,0.0939,0.0935,0.1053,0.0923,0.1,0.0917,0.1073,0.0827,0.0762,0.076,0.0759,0.0758,0.0757,0.0867,0.0849,0.0881,0.0927,0.0985,0.1003,0.1222,0.1236,0.1218,0.1315,0.1327,0.1324,0.1116,0.1345,0.1347,0.1348,0.1349,0.135,0.135,0.089,0.0911,0.0995,0.1036,0.1098,0.1246,0.141,0.154,0.1601,0.1539,0.1538,0.1169,0.1176,0.1162,0.1368,0.1365,0.1363,0.1361,0.136,0.0893,0.0951,0.1086,0.1177,0.1381,0.163,0.175,0.1965,0.2032,0.2062,0.153,0.1655,0.1632,0.1604,0.16,0.1909,0.1909,0.1909,0.1909,0.0901,0.0939,0.1173,0.1389,0.1655,0.1832,0.2216,0.2292,0.2021,0.1788,0.1635,0.1441,0.1428,0.1378,0.1356,0.134,0.1576,0.1575,0.1574,0.0893,0.0987,0.1179,0.1449,0.1766,0.21,0.2396,0.2435,0.191,0.1533,0.1339,0.1354,0.103,0.1027,0.0904,0.089,0.0847,0,0]}],[{"header":{"parameterUnit":"m.s-1","parameterCategory":2,"la1":30.2992,"la2":30.254,"lo1":-89.0895,"lo2":-89.0443,"dy":0.0025,"dx":0.0025,"nx":19,"ny":19,"refTime":"2026-03-21T09:00:00:Z","depth":"2","parameterNumber":2,"parameterNumberName":"U-component_of_CURRENTS"},"data":[0,0,0,0.3747,0.375,0.3914,0.3915,0.4005,0.4005,0,0,0,0,0,0,0,0,0,0,0,0.3732,0.3734,0.3747,0.3751,0.3914,0.3915,0.4005,0.4005,0,0,0,0,0,0,0,0,0,0,0,0.3731,0.3734,0.3737,0.3751,0.3914,0.3915,0.4005,0.3911,0,0,0,0,0,0,0,0,0,0,0.3767,0.3721,0.3733,0.3737,0.3752,0.3914,0.3915,0.3908,0.3917,0.3897,0,0.3966,0,0.3968,0.4009,0.4009,0,0,0,0.3751,0.3714,0.3802,0.3737,0.3754,0.3914,0.384,0.3914,0.3924,0.3908,0.3967,0.397,0.397,0.4009,0.4009,0.4119,0.412,0,0,0.3742,0.3706,0.3796,0.381,0.3851,0.3835,0.3845,0.3921,0.3925,0.3968,0.3972,0.3971,0.4009,0.401,0.4118,0.4119,0,0,0,0.3716,0.37,0.3787,0.3806,0.3835,0.384,0.3852,0.3922,0.3967,0.3973,0.3972,0.401,0.401,0.4118,0.4119,0.428,0,0,0,0.371,0.3685,0.3784,0.3756,0.3836,0.3881,0.385,0.3963,0.397,0.3972,0.401,0.4011,0.4117,0.4118,0.4274,0.4242,0,0,0,0.3715,0.3682,0.373,0.3756,0.3827,0.3882,0.3928,0.3965,0.3968,0.4009,0.4011,0.4116,0.4118,0.4268,0.4235,0.4296,0,0,0,0.3631,0.3678,0.373,0.3747,0.3826,0.3885,0.3928,0.3998,0.4042,0.401,0.4117,0.4119,0.4267,0.4231,0.4292,0.401,0.4007,0,0,0.3631,0.3677,0.3677,0.3727,0.3785,0.3859,0.39,0.4011,0.406,0.4081,0.4085,0.4276,0.4235,0.4295,0.4124,0.4117,0,0,0,0.3632,0.3683,0.3702,0.3742,0.3784,0.387,0.3954,0.406,0.4237,0.4096,0.4271,0.4236,0.4272,0.4093,0.4089,0.4128,0.4128,0.4128,0.4127,0.3622,0.3639,0.3635,0.3702,0.374,0.3889,0.4044,0.42,0.4223,0.4382,0.4371,0.4511,0.4325,0.4318,0.4424,0.4425,0.4425,0.4426,0.4426,0.3571,0.3523,0.357,0.3604,0.3699,0.377,0.4067,0.4255,0.4527,0.4511,0.4542,0.427,0.4321,0.4439,0.4436,0.4435,0.4433,0.4432,0.4432,0.3478,0.3451,0.3496,0.3507,0.3604,0.3759,0.4013,0.4337,0.457,0.4719,0.4453,0.4445,0.4563,0.4718,0.4718,0.4718,0.4718,0.4719,0.4719,0.3322,0.335,0.3372,0.3431,0.3507,0.3687,0.4061,0.4282,0.4439,0.4516,0.4514,0.4606,0.4597,0.4576,0.4722,0.4721,0.4721,0.4721,0.472,0.3183,0.3231,0.3284,0.3354,0.3515,0.3547,0.3895,0.4069,0.4308,0.4265,0.4433,0.4438,0.4331,0.4329,0.4299,0.4364,0.4364,0.4364,0.4364,0.3106,0.3105,0.324,0.3323,0.3441,0.3499,0.349,0.3564,0.3815,0.386,0.3882,0.3765,0.379,0.3646,0.366,0.3613,0.3501,0.3499,0.3498,0.3024,0.3111,0.3188,0.3281,0.3392,0.3378,0.3122,0.2875,0.3063,0.3466,0.3759,0.4301,0.4185,0.4202,0.4021,0.4028,0.3969,0,0]},{"header":{"parameterUnit":"m.s-1","parameterCategory":2,"la1":30.2992,"la2":30.254,"lo1":-89.0895,"lo2":-89.0443,"dy":0.0025,"dx":0.0025,"nx":19,"ny":19,"refTime":"2026-03-21T09:00:00:Z","depth":"2","parameterNumber":3,"parameterNumberName":"V-component_of_CURRENTS"},"data":[0,0,0,0.0322,0.0321,0.028,0.028,0.018,0.0179,0,0,0,0,0,0,0,0,0,0,0,0.0327,0.0327,0.0322,0.0321,0.0281,0.028,0.018,0.0179,0,0,0,0,0,0,0,0,0,0,0,0.0327,0.0327,0.0327,0.0321,0.0281,0.028,0.018,0.0218,0,0,0,0,0,0,0,0,0,0,0.0262,0.0295,0.0327,0.0327,0.0321,0.0281,0.028,0.022,0.0216,0.0191,0,0.0192,0,0.0194,0.0173,0.0173,0,0,0,0.0302,0.0299,0.0279,0.0327,0.0321,0.0281,0.0293,0.0218,0.0213,0.0184,0.0191,0.0187,0.0193,0.0172,0.0172,0.0183,0.0183,0,0,0.0304,0.0324,0.0283,0.0276,0.0319,0.0295,0.0292,0.0215,0.0218,0.019,0.0185,0.0191,0.0172,0.0171,0.0182,0.0183,0,0,0,0.0324,0.0326,0.0308,0.0279,0.0282,0.0294,0.0291,0.0221,0.0213,0.0184,0.019,0.0171,0.017,0.0181,0.0182,0.0316,0,0,0,0.0324,0.0338,0.0309,0.0321,0.0285,0.0263,0.0299,0.0218,0.021,0.019,0.0171,0.0169,0.018,0.0182,0.0311,0.0436,0,0,0,0.0327,0.0339,0.0335,0.0322,0.0314,0.0264,0.0251,0.0216,0.0214,0.0173,0.0169,0.018,0.0181,0.0306,0.0425,0.0553,0,0,0,0.0347,0.0374,0.0336,0.0375,0.0314,0.0313,0.0252,0.0237,0.0209,0.0171,0.018,0.0182,0.0304,0.0418,0.0546,0.0537,0.0571,0,0,0.0397,0.0381,0.0407,0.0372,0.0404,0.0316,0.0346,0.0278,0.023,0.0196,0.0196,0.0313,0.0424,0.0552,0.0645,0.0677,0,0,0,0.0434,0.0458,0.0461,0.047,0.0436,0.0444,0.035,0.0335,0.0329,0.0226,0.0313,0.0381,0.0457,0.0434,0.0459,0.0191,0.0191,0.0191,0.019,0.0557,0.0535,0.0581,0.0558,0.0552,0.0511,0.0534,0.0498,0.0391,0.0427,0.0488,0.0683,0.0657,0.0676,0.0448,0.0449,0.0449,0.045,0.045,0.0677,0.0684,0.0681,0.0714,0.0689,0.0702,0.0703,0.0672,0.0747,0.0621,0.0685,0.0574,0.0712,0.0461,0.0459,0.0457,0.0456,0.0455,0.0455,0.0755,0.0735,0.0773,0.082,0.0867,0.0848,0.1028,0.0994,0.0928,0.1003,0.0963,0.0959,0.0808,0.1017,0.1018,0.1019,0.102,0.1021,0.1022,0.0769,0.0796,0.0888,0.0932,0.1003,0.1135,0.1236,0.1319,0.1283,0.1171,0.1169,0.0875,0.0857,0.0842,0.1039,0.1036,0.1034,0.1032,0.1031,0.0772,0.0828,0.0982,0.1081,0.1298,0.1516,0.1571,0.1662,0.1676,0.1644,0.1256,0.1245,0.1221,0.1196,0.119,0.1467,0.1467,0.1467,0.1467,0.0781,0.0818,0.108,0.1315,0.1577,0.1716,0.1952,0.1865,0.1672,0.1478,0.1477,0.1304,0.1286,0.1254,0.1228,0.1217,0.1502,0.1502,0.1502,0.0794,0.0894,0.1107,0.1393,0.1706,0.1974,0.2086,0.1891,0.1545,0.1501,0.1459,0.1474,0.1206,0.1184,0.1112,0.108,0.1052,0,0]}],[{"header":{"parameterUnit":"m.s-1","parameterCategory":2,"la1":30.2992,"la2":30.254,"lo1":-89.0895,"lo2":-89.0443,"dy":0.0025,"dx":0.0025,"nx":19,"ny":19,"refTime":"2026-03-21T09:00:00:Z","depth":"4","parameterNumber":2,"parameterNumberName":"U-component_of_CURRENTS"},"data":[0,0,0,0.15,0.1502,0.1572,0.1572,0.1636,0.1637,0,0,0,0,0,0,0,0,0,0,0,0.1471,0.1472,0.15,0.1503,0.1572,0.1572,0.1636,0.1637,0,0,0,0,0,0,0,0,0,0,0,0.147,0.1471,0.1473,0.1503,0.1572,0.1572,0.1636,0.1582,0,0,0,0,0,0,0,0,0,0,0.1515,0.1537,0.1471,0.1473,0.1504,0.1572,0.1572,0.158,0.1586,0.1606,0,0.1637,0,0.1655,0.1643,0.1643,0,0,0,0.1474,0.1533,0.1524,0.1473,0.1505,0.1572,0.1533,0.1583,0.159,0.1614,0.1639,0.1641,0.1656,0.1644,0.1644,0.1786,0.1787,0,0,0.147,0.1505,0.1519,0.1529,0.1551,0.1531,0.1535,0.1587,0.1623,0.1639,0.1643,0.1657,0.1644,0.1645,0.1785,0.1786,0,0,0,0.1478,0.1503,0.1493,0.1525,0.155,0.1534,0.1539,0.162,0.161,0.1644,0.1658,0.1645,0.1646,0.1784,0.1786,0.1871,0,0,0,0.1475,0.1509,0.1492,0.1516,0.155,0.1601,0.1571,0.1605,0.1613,0.1657,0.1645,0.1647,0.1783,0.1785,0.1866,0.1841,0,0,0,0.1462,0.1509,0.1518,0.1517,0.1558,0.1599,0.1592,0.1607,0.1622,0.1644,0.1647,0.1783,0.1785,0.1863,0.1837,0.1965,0,0,0,0.149,0.1506,0.152,0.1563,0.1557,0.1571,0.1592,0.163,0.1651,0.1645,0.1784,0.1786,0.1861,0.1834,0.1961,0.1749,0,0,0,0.1504,0.151,0.1529,0.1542,0.156,0.1558,0.1615,0.1663,0.169,0.1757,0.1761,0.1868,0.1836,0.1964,0.187,0,0,0,0,0.1528,0.1514,0.1527,0.1564,0.1593,0.1628,0.1666,0.1702,0.1806,0.172,0.1885,0.1861,0.1941,0.1805,0.1796,0.1795,0.1795,0.1795,0.1795,0.1428,0.1485,0.1505,0.1555,0.1605,0.1689,0.1734,0.1801,0.1834,0.1913,0.1947,0.211,0.1971,0.1997,0.1998,0.1998,0.1998,0.1999,0.1999,0.1353,0.1375,0.147,0.1522,0.1624,0.1702,0.1828,0.1896,0.2043,0.2017,0.2095,0.1919,0.2008,0.2006,0.2005,0.2004,0.2003,0.2002,0.2002,0.1271,0.1307,0.1367,0.1482,0.1596,0.173,0.1885,0.2004,0.2106,0.2179,0.2123,0.2178,0.2156,0.229,0.229,0.2291,0.2291,0.2292,0.2292,0.1194,0.1253,0.1311,0.1427,0.1516,0.1684,0.194,0.2064,0.2212,0.2158,0.2242,0.2208,0.2199,0.2173,0.2299,0.2298,0.2297,0.2296,0.2296,0.1102,0.1198,0.1253,0.1329,0.148,0.1574,0.1859,0.2083,0.2214,0.223,0.217,0.2174,0.2126,0.2119,0.2087,0.2193,0.2191,0.2189,0,0.1069,0.1102,0.1213,0.1271,0.1352,0.1497,0.1682,0.1877,0.2015,0.1935,0.2159,0.2079,0.2084,0.2013,0.2005,0.1959,0,0,0,0.1003,0.1077,0.1119,0.1212,0.1273,0.146,0.1715,0.1762,0.197,0.2081,0.2133,0.2147,0.2251,0.2322,0.2257,0.2246,0.2201,0,0]},{"header":{"parameterUnit":"m.s-1","parameterCategory":2,"la1":30.2992,"la2":30.254,"lo1":-89.0895,"lo2":-89.0443,"dy":0.0025,"dx":0.0025,"nx":19,"ny":19,"refTime":"2026-03-21T09:00:00:Z","depth":"4","parameterNumber":3,"parameterNumberName":"V-component_of_CURRENTS"},"data":[0,0,0,0.0262,0.0262,0.0242,0.0242,0.0146,0.0145,0,0,0,0,0,0,0,0,0,0,0,0.0268,0.0268,0.0262,0.0262,0.0242,0.0242,0.0146,0.0145,0,0,0,0,0,0,0,0,0,0,0,0.0268,0.0268,0.0268,0.0262,0.0242,0.0242,0.0146,0.0178,0,0,0,0,0,0,0,0,0,0,0.0206,0.0229,0.0268,0.0268,0.0262,0.0242,0.0242,0.0181,0.0176,0.0135,0,0.0134,0,0.0136,0.0137,0.0137,0,0,0,0.026,0.0233,0.0221,0.0268,0.0262,0.0242,0.025,0.0179,0.0174,0.0129,0.0133,0.013,0.0135,0.0136,0.0136,0.0091,0.0091,0,0,0.0261,0.0267,0.0225,0.0218,0.0257,0.0251,0.025,0.0176,0.0173,0.0133,0.0128,0.0133,0.0135,0.0135,0.009,0.0091,0,0,0,0.0265,0.0268,0.026,0.0221,0.0223,0.0251,0.0249,0.0177,0.0172,0.0127,0.0132,0.0135,0.0133,0.009,0.009,0.0178,0,0,0,0.0266,0.0271,0.0261,0.0265,0.0225,0.0211,0.0251,0.0177,0.017,0.0133,0.0135,0.0132,0.0089,0.009,0.0175,0.0222,0,0,0,0.0269,0.0272,0.0268,0.0265,0.0257,0.0212,0.0205,0.0176,0.0172,0.0136,0.0132,0.0089,0.009,0.0172,0.0217,0.0233,0,0,0,0.0277,0.0305,0.0269,0.0299,0.0257,0.0278,0.0205,0.0207,0.0187,0.0134,0.0089,0.009,0.0171,0.0213,0.023,0.0277,0,0,0,0.0325,0.031,0.0331,0.0299,0.0339,0.028,0.031,0.0245,0.0182,0.0107,0.0106,0.0176,0.0216,0.0232,0.0329,0,0,0,0,0.0355,0.0374,0.0379,0.0389,0.0377,0.037,0.0313,0.0263,0.0203,0.0173,0.017,0.0192,0.02,0.0218,0.0095,0.0095,0.0095,0.0095,0.0094,0.0447,0.0439,0.0481,0.0471,0.0469,0.0431,0.04,0.032,0.026,0.0239,0.0259,0.0327,0.035,0.0247,0.0247,0.0248,0.0248,0.0248,0.0249,0.0535,0.0548,0.055,0.059,0.0563,0.0579,0.0479,0.0428,0.0358,0.0306,0.0308,0.0304,0.0257,0.0255,0.0254,0.0253,0.0252,0.0252,0.0252,0.0573,0.0574,0.0615,0.067,0.0712,0.0685,0.0704,0.0611,0.046,0.0456,0.0465,0.0379,0.0375,0.047,0.0471,0.0471,0.0471,0.0472,0.0472,0.0573,0.0613,0.0693,0.0757,0.0824,0.0878,0.0845,0.079,0.0661,0.0575,0.0502,0.0401,0.0394,0.0387,0.0476,0.0476,0.0475,0.0475,0.0474,0.0584,0.0627,0.0746,0.0833,0.0993,0.1031,0.102,0.0911,0.0847,0.074,0.0607,0.06,0.0567,0.0555,0.0552,0.0695,0.0696,0.0697,0,0.0594,0.0621,0.0801,0.0964,0.1093,0.1125,0.1098,0.1023,0.0834,0.0821,0.0796,0.0651,0.0642,0.0608,0.0599,0.0599,0,0,0,0.062,0.0674,0.0804,0.0984,0.1147,0.1123,0.1088,0.1042,0.0873,0.0827,0.0721,0.0714,0.0633,0.049,0.042,0.0412,0.0396,0,0]}]]